Location: Deer Path Park
(40.5570°N, 74.8450°W)
Time: 18:59:29
(UTC-04:00)

Iridium 49 - Visible Passes

Search period start: 24 April 2017 00:00
Search period end: 04 May 2017 00:00
Orbit: 776 x 779 km, 86.4° (Epoch: 23 April)

Date Brightness Start Highest point End Pass type
(mag) Time Alt. Az. Time Alt. Az. Time Alt. Az.
24 Apr 6.4 05:14:55 10° S 05:20:04 69° E 05:25:16 10° N visible
25 Apr 7.6 04:41:57 10° SSE 04:46:41 37° E 04:51:26 10° NNE visible
26 Apr 8.5 04:09:40 10° SE 04:13:25 20° E 04:17:10 10° NE visible
27 Apr 9.1 03:39:04 10° E 03:40:16 11° ENE 03:41:27 10° ENE visible
27 Apr 6.0 05:14:58 10° S 05:20:10 83° W 05:25:25 10° N visible
28 Apr 6.8 04:41:39 10° SSE 04:46:42 53° E 04:51:46 10° NNE visible
29 Apr 7.9 04:08:56 10° SE 04:13:21 29° E 04:17:48 10° NNE visible
30 Apr 8.7 03:37:02 10° ESE 03:40:08 16° ENE 03:43:14 10° NE visible
30 Apr 6.2 05:15:12 10° SSW 05:20:18 57° W 05:25:27 10° N visible
01 May 6.2 04:41:34 10° S 04:46:46 78° E 04:51:59 10° N visible
02 May 7.2 04:08:29 10° SSE 04:13:21 42° E 04:18:14 10° NNE visible
03 May 8.2 03:36:02 10° SE 03:40:03 23° E 03:44:04 10° NNE visible
03 May 6.6 05:15:38 10° SSW 05:20:29 39° W 05:25:22 10° NNW visible
